Location: Unspecified
(49.9820°N, 20.4363°E)
Time: 04:14:54
(UTC+02:00)

Vanguard 3 - Pass Details

Date: 23 May 2026
Orbit: 507 x 3204 km, 33.3° (Epoch: 6 June)

Event Time Altitude Azimuth Distance (km) Brightness Sun altitude
Rises 16:36:44 0° 269° (W) 6,794 12.9 34.6°
Reaches altitude 10° 16:41:38 10° 262° (W) 5,970 13.0 33.8°
Maximum altitude 16:57:41 35° 207° (SSW) 4,311 11.5 31.2°
Drops below altitude 10° 17:12:12 10° 150° (SSE) 5,386 11.1 28.9°
Sets 17:16:23 0° 141° (SE) 6,080 11.3 28.2°
